Location: Unspecified
(50.4487°N, 0.0000°E)
Time: 02:19:00
(UTC+00:00)

SL-14 DEB - Visible Passes

Search period start: 04 April 2026 00:00
Search period end: 14 April 2026 00:00
Orbit: 906 x 918 km, 82.6° (Epoch: 24 February)

Date Brightness Start Highest point End Pass type
(mag) Time Alt. Az. Time Alt. Az. Time Alt. Az.
5 Apr ? 19:07:36 10° NW 19:11:58 22° W 19:16:19 10° SW visible
6 Apr ? 19:14:18 10° NW 19:18:01 17° W 19:21:43 10° WSW visible
7 Apr ? 19:21:14 10° NW 19:24:01 14° WNW 19:26:49 10° WSW visible
8 Apr ? 19:28:55 10° WNW 19:30:01 11° WNW 19:31:06 10° W visible
12 Apr ? 04:01:59 10° E 04:03:14 11° ENE 04:04:29 10° ENE visible
13 Apr ? 04:06:22 10° ESE 04:09:13 14° ENE 04:12:04 10° NE visible
